Regional Weather Roundup
Issued by NWS

Home | Current Version | Previous Version | Text Only | Print | Product List | Glossary On
Versions: 1 2 3 4 5 6 7 8 9 10 11 12 13 14 15 16 17 18 19 20 21 22 23 24 25 26 27 28 29 30 31 32 33 34 35 36 37 38 39 40 41 42 43 44 45 46 47 48 49 50
000
ASCA44 KEWX 301520
RWRMX

LATIN AMERICA AND CARIBBEAN REGIONAL WEATHER ROUNDUP
NATIONAL WEATHER SERVICE AUSTIN/SAN ANTONIO TX
1000 AM CDT TUE SEP 30 2014

NOTE: "FAIR" INDICATED FEW OR NO CLOUDS BELOW 12,000 FEET WITH NO
SIGNIFICANT WEATHER AND/OR OBSTRUCTIONS TO VISIBILITY.

BAJA CALIFORNIA

CITY           SKY/WX    TMP DP  RH WIND       PRES   REMARKS
LORETO         MOSUNNY   82  72  69 W6        29.77
LA PAZ         MOSUNNY   79  73  83 CALM      29.81
MEXICALI       SUNNY     68  45  42 SE3       29.83
S.J. DEL CABO  MOSUNNY   82  73  74 CALM      29.81
TIJUANA        SUNNY     66  54  63 CALM      29.89R

NORTHWESTERN MEXICO

CITY           SKY/WX    TMP DP  RH WIND       PRES   REMARKS
CULIACAN       MOSUNNY   84  77  79 CALM      29.77  HX  94
DURANGO        MOSUNNY   63  54  72 CALM      30.20R
GUAYMAS        SUNNY     84  63  48 CALM      29.74
HERMOSILLO     SUNNY     79  63  57 CALM      29.84
CD. JUAREZ     MOSUNNY   70  55  60 CALM      29.96
LOS MOCHIS     MOSUNNY   84  73  70 CALM      29.77  HX  91
OBREGON        MOSUNNY   81  72  74 CALM      29.75

NORTHEASTERN MEXICO

CITY           SKY/WX    TMP DP  RH WIND       PRES   REMARKS
CHIHUAHUA      MOSUNNY   66  61  82 CALM      30.07
MATAMOROS      CLOUDY    77  77 100 CALM      29.86  FOG
MONCLOVA         N/A    N/A N/A N/A MISG        N/A
MONTERREY      MOSUNNY   75  68  78 NW5       29.92R
NUEVO LAREDO   SUNNY     79  72  78 CALM      29.89
PIEDRAS NEGRAS SUNNY     79  66  65 SE7       29.90
REYNOSA        CLOUDY    77  70  78 CALM      29.87
SALTILLO       SUNNY     68  54  60 CALM      30.12S
TORREON        SUNNY     70  54  56 SE5       30.04R
CD. VICTORIA   SUNNY     77  68  73 SE3       29.90

WESTERN MEXICO

CITY           SKY/WX    TMP DP  RH WIND       PRES   REMARKS
AGUASCALIENTES MOSUNNY   64  50  59 NE8       30.21
COLIMA         CLOUDY    72  70  94 CALM      29.95R
DEL BAJIO      PTSUNNY   68  55  64 CALM      30.21S
GUADALAJARA    CLOUDY    63  61  94 CALM      30.12
MANZANILLO     CLOUDY    79  77  94 NE6       29.78R
MAZATLAN       MOSUNNY   81  77  89 E8        29.76S
P. VALLARTA    CLOUDY    79  73  83 CALM      29.80R
URUAPAN        PTSUNNY   64  63  94 NE7       30.12R
ZACATECAS      PTSUNNY   59  48  67 CALM      30.25R

CENTRAL MEXICO

CITY           SKY/WX    TMP DP  RH WIND       PRES   REMARKS
CUERNAVACA     PTSUNNY   70  68  94 CALM      30.10R FOG
MEXICO CITY    PTSUNNY   61  55  82 E6        30.27R
MORELIA        CLOUDY    63  61  94 CALM      30.17
POZA RICA      SUNNY     81  73  78 CALM      29.93R
PUEBLA         CLOUDY    63  55  77 NE3       30.28R
QUERETARO      PTSUNNY   64  57  77 E9        30.24S
S. LUIS POTOSI MOSUNNY   64  54  68 CALM      30.19R
TAMPICO        MOSUNNY   82  77  83 W6        29.88R HX  91
TOLUCA         PTSUNNY   59  41  51 E5        30.33R FOG

SOUTHERN MEXICO

CITY           SKY/WX    TMP DP  RH WIND       PRES   REMARKS
ACAPULCO       CLOUDY    79  75  89 NE10      29.81S
B. DE HUATULCO PTSUNNY   77  70  78 CALM      29.88
OAXACA         PTSUNNY   66  59  77 N3        30.19R
P. ESCONDIDO   CLOUDY    79  73  83 CALM      29.96F
VERACRUZ       CLOUDY    81  73  78 W5        29.88S
ZIHUATANEJO    PTSUNNY   82  73  74 CALM      29.81S

YUCATAN PENINSULA

CITY           SKY/WX    TMP DP  RH WIND       PRES   REMARKS
CAMPECHE       MOSUNNY   82  77  83 SE10      29.88R HX  91
CANCUN         PTSUNNY   86  77  74 SE6       29.92R HX  97
CHETUMAL       MOSUNNY   84  77  79 CALM      29.88R HX  94
CD. DEL CARMEN PTSUNNY   82  77  83 S7        29.88  HX  91
COZUMEL        PTSUNNY   82  77  83 SE9       29.92R HX  91
MERIDA         MOSUNNY   84  77  79 S7        29.90R HX  94
MINATITLAN     CLOUDY    79  70  73 CALM      29.86  HAZE
TAPACHULA      PTSUNNY   81  77  89 CALM      29.90R
TUX. GUTIERREZ PTSUNNY   77  72  83 SE2       29.98R
VILLAHERMOSA   PTSUNNY   79  75  89 CALM      29.90R

CENTRAL AMERICA

CITY           SKY/WX    TMP DP  RH WIND       PRES   REMARKS
BELIZE CITY    PTSUNNY   82  79  89 SW7       29.90R HX  93
MANAGUA        MOSUNNY   82  75  78 E5        29.86S

CARIBBEAN

CITY           SKY/WX    TMP DP  RH WIND       PRES   REMARKS
ARUBA          MOSUNNY   90  77  66 E21       29.86F HX 102
KINGSTON       MOSUNNY   88  77  70 SE18      29.92S HX 100
NASSAU         MOSUNNY   90  79  70 W9        29.91R HX 105
SAN JUAN       MOSUNNY   88  75  66 NE6       30.00F HX  97
SANTO DOMINGO  MOSUNNY   86  77  74 SE7       29.97S HX  97
ST. KITTS      MOSUNNY   86  79  79 E12       30.03S HX  99
ST. MAARTEN    MOSUNNY   88  75  66 SE10      30.00F HX  97

$$




USA.gov is the U.S. government's official web portal to all federal, state and local government web resources and services.